This is the latest recevied weather packets stored in our database for station/object WA9SDJ-13. If no packets are shown the sender has not sent any weather packets the latest 10 day(s).
| Time | Temp. | Humidity | Pressure | Rain* | Wind** | Luminosity | Snow |
|---|---|---|---|---|---|---|---|
| 1777968122 | 13.33° C | 87% | 1005.9 hPa | 5.33 mm | - | 0 W/m² | - |
| 1777968062 | 13.33° C | 86% | 1005.9 hPa | 5.33 mm | - | 0 W/m² | - |
| 1777968003 | 13.33° C | 86% | 1005.7 hPa | 5.33 mm | - | 0 W/m² | - |
| 1777967943 | 13.89° C | 86% | 1005.7 hPa | 5.33 mm | - | 0 W/m² | - |
| 1777967882 | 13.89° C | 86% | 1006 hPa | 5.59 mm | - | 0 W/m² | - |
| 1777967822 | 13.89° C | 86% | 1006.1 hPa | 5.84 mm | - | 0 W/m² | - |
| 1777967763 | 13.89° C | 86% | 1006.1 hPa | 5.84 mm | - | 0 W/m² | - |
| 1777967703 | 13.89° C | 86% | 1006.1 hPa | 6.1 mm | - | 0 W/m² | - |
| 1777967642 | 13.89° C | 86% | 1006.2 hPa | 6.35 mm | - | 0 W/m² | - |
| 1777967582 | 13.89° C | 86% | 1006.1 hPa | 6.35 mm | - | 0 W/m² | - |
| 1777967523 | 13.89° C | 86% | 1006 hPa | 6.6 mm | - | 0 W/m² | - |
| 1777967463 | 13.89° C | 86% | 1005.9 hPa | 6.35 mm | - | 0 W/m² | - |
| 1777967403 | 13.89° C | 86% | 1006.1 hPa | 6.6 mm | - | 0 W/m² | - |
| 1777967342 | 13.89° C | 86% | 1006.2 hPa | 6.86 mm | - | 0 W/m² | - |
| 1777967282 | 13.89° C | 86% | 1006.2 hPa | 6.6 mm | - | 0 W/m² | - |
| 1777967223 | 13.89° C | 86% | 1006.2 hPa | 6.6 mm | - | 0 W/m² | - |
| 1777967161 | 13.89° C | 86% | 1006.2 hPa | 6.6 mm | - | 0 W/m² | - |
| 1777967102 | 13.89° C | 86% | 1006.3 hPa | 6.6 mm | - | 0 W/m² | - |
| 1777967042 | 13.89° C | 86% | 1006.4 hPa | 6.86 mm | - | 0 W/m² | - |
| 1777966983 | 13.89° C | 87% | 1006.5 hPa | 6.86 mm | - | 0 W/m² | - |
| 1777966922 | 13.89° C | 87% | 1006.4 hPa | 7.37 mm | - | 0 W/m² | - |
| 1777966862 | 13.89° C | 87% | 1006.4 hPa | 7.62 mm | - | 0 W/m² | - |
| 1777966802 | 13.89° C | 87% | 1006.4 hPa | 7.87 mm | - | 0 W/m² | - |
| 1777966743 | 13.89° C | 87% | 1006.2 hPa | 7.62 mm | - | 0 W/m² | - |
| 1777966682 | 13.89° C | 87% | 1006.2 hPa | 7.87 mm | - | 0 W/m² | - |
* Rain latest hour (hover to see other rain measurements)
** Current wind speed in m/s (hover to see current wind gust speed)